Location: McFarlands Corners
(41.4117°N, 81.3382°W)
Time: 19:29:57
(UTC+00:00)

BlueWalker 3 - Pass Details

Date: 29 January 2026
Orbit: 450 x 461 km, 53.2° (Epoch: 11 February)

Event Time Altitude Azimuth Distance (km) Brightness Sun altitude
Rises 23:43:59 0° 296° (WNW) 2,457 6.3 -12.6°
Reaches altitude 10° 23:47:08 10° 326° (NW) 1,584 4.8 -13.2°
Maximum altitude 23:48:48 13° 354° (N) 1,422 4.2 -13.5°
Enters shadow 23:50:28 10° 22° (NNE) 1,581 4.1 -13.8°
